COSMOS 2251 DEB, 34949

Orbit data source: Space-Track

COSMOS 2251 DEB, 34949 is space debris in LEO originally from a launch on Wed, 16 Jun 1993 UTC launched from the Plesetsk Missile And Space Complex (PKMTR). The debris from Iridium 33, an American commercial communications satellite, has been tracked extensively since its accidental collision with the defunct Russian satellite Cosmos 2251 in 2009. This event, occurring at high speed in low Earth orbit (LEO), generated thousands of pieces of space debris, significantly increasing the risk of further collisions. The Iridium 33 debris cloud has impacted space traffic management and orbital debris mitigation strategies, making it a subject of ongoing study in space situational awareness.

Loading next visibility...
Identifier
34949, 1993-036AEC
Orbit
LEO
Country
Flag of CISCIS
Related business
Manufacturer
Unknown
Mission
Spacecraft
Bus & Motor
Unknown
Mass
Unknown
Launch date (UTC)
1993-06-16 (33 years ago)
Launch vehicle
Unknown
Launch site
Plesetsk Missile And Space Complex (PKMTR)
Object type
Payload
Rocket body
Debris
Shape & HBR
Unknown shape, 0.1 m
Radar Cross Section
Medium (>0.1 m² and <1 m²)

Expand to show TLE details & history
Last TLE update: 4 days ago

TLE from 4 days ago
0 COSMOS 2251 DEB
1 34949U 93036AEC 26250.54075177  .00001018  00000-0  14851-3 0  9993
2 34949  74.0170 303.9320 0077587  19.2633 341.1444 14.75243335923246
Epoch: 2026-09-07T12:58Z
TLE epoch observation values (Epoch: 2026-09-07T12:58:40.952Z)
Latitude
-0.00005°
Longitude
122.64131°
Altitude
595.51 km
Speed
7.59 km/s
True Right ascension
20h 15m 43s
True Declination
0° 00' 00"
Sunlit
Object was in full shadow at epoch
Visualization orbit readout
Latitude
Unknown
Longitude
Unknown
Altitude
Unknown
Speed
Unknown
Apparent Right ascension
Unknown
Apparent Declination
Unknown
Sunlit
N/A
Visualization observer readout
Local Sidereal Time
00:11:39
Azimuth
Unknown
Elevation
Unknown
Doppler factor
Unknown
Orbital elements
Apogee altitude
696.428 km
Perigee altitude
587.494 km
Semi-major axis
7,020.098 km
Eccentricity
0.00776
Inclination
74.017°
RAAN
303.932°
Arg. of periapsis
19.2633°
True anomaly
340.8544°
Mean anomaly
341.1444°
Eccentric anomaly
340.99967°
Mean motion
3.69002 °/min
Orbital period
97.56 mins
BSTAR
0.00014851

Documentation

Showing up to 5 results
|